TimeEDT,TemperatureF,Dew PointF,Humidity,Sea Level PressureIn,VisibilityMPH,Wind Direction,Wind SpeedMPH,Gust SpeedMPH,PrecipitationIn,Events,Conditions,WindDirDegrees,DateUTC
12:56 AM,33.1,17.1,52,30.01,10.0,WNW,18.4,28.8,0.00,,Mostly Cloudy,300,2013-03-14 04:56:00
1:56 AM,32.0,18.0,56,30.01,10.0,NW,18.4,28.8,N/A,,Scattered Clouds,310,2013-03-14 05:56:00
2:56 AM,32.0,19.0,59,30.01,10.0,WNW,16.1,27.6,N/A,,Mostly Cloudy,300,2013-03-14 06:56:00
3:56 AM,32.0,18.0,56,30.00,10.0,West,11.5,-,N/A,,Overcast,280,2013-03-14 07:56:00
4:56 AM,32.0,17.1,54,29.99,10.0,WNW,18.4,23.0,N/A,,Overcast,300,2013-03-14 08:56:00
5:56 AM,32.0,17.1,54,30.01,10.0,NW,19.6,28.8,N/A,,Overcast,310,2013-03-14 09:56:00
6:56 AM,32.0,16.0,52,30.03,10.0,NW,21.9,25.3,N/A,,Overcast,310,2013-03-14 10:56:00
7:56 AM,30.9,16.0,54,30.05,10.0,WNW,21.9,25.3,N/A,,Overcast,300,2013-03-14 11:56:00
8:56 AM,32.0,12.9,45,30.07,10.0,WNW,20.7,32.2,N/A,,Overcast,300,2013-03-14 12:56:00
9:56 AM,33.8,12.2,41,30.06,10.0,NW,24.2,33.4,N/A,,Scattered Clouds,310,2013-03-14 13:56:00
10:56 AM,35.1,12.9,40,30.06,10.0,NW,21.9,32.2,N/A,,Scattered Clouds,310,2013-03-14 14:56:00
11:56 AM,36.0,12.0,37,30.06,10.0,NW,25.3,33.4,N/A,,Scattered Clouds,320,2013-03-14 15:56:00
12:56 PM,37.0,15.1,41,30.04,10.0,WNW,20.7,29.9,N/A,,Partly Cloudy,300,2013-03-14 16:56:00
1:56 PM,39.9,14.0,35,30.03,10.0,WNW,21.9,31.1,N/A,,Scattered Clouds,300,2013-03-14 17:56:00
2:56 PM,39.9,14.0,35,30.00,10.0,WNW,24.2,39.1,N/A,,Scattered Clouds,300,2013-03-14 18:56:00
3:56 PM,41.0,14.0,33,29.99,10.0,WNW,24.2,38.0,N/A,,Scattered Clouds,300,2013-03-14 19:56:00
4:56 PM,39.2,15.8,39,29.99,10.0,WNW,21.9,35.7,N/A,,Partly Cloudy,300,2013-03-14 20:56:00
5:56 PM,39.0,18.0,43,30.00,10.0,WNW,25.3,32.2,N/A,,Partly Cloudy,290,2013-03-14 21:56:00
6:56 PM,37.9,12.0,35,30.01,10.0,WNW,24.2,36.8,N/A,,Partly Cloudy,300,2013-03-14 22:56:00
7:56 PM,37.0,15.1,41,30.03,10.0,WNW,17.3,29.9,N/A,,Clear,300,2013-03-14 23:56:00
8:56 PM,36.0,14.0,41,30.04,10.0,WNW,21.9,27.6,N/A,,Clear,300,2013-03-15 00:56:00
9:56 PM,35.1,12.9,40,30.04,10.0,NW,20.7,27.6,N/A,,Clear,310,2013-03-15 01:56:00
10:56 PM,34.0,12.0,40,30.06,10.0,NW,15.0,23.0,N/A,,Clear,310,2013-03-15 02:56:00
11:56 PM,34.0,12.0,40,30.06,10.0,NW,17.3,-,N/A,,Clear,320,2013-03-15 03:56:00